Regional Weather Roundup
Issued by NWS

Home | Current Version | Previous Version | Graphics & Text | Print | Product List | Glossary On
Versions: 1 2 3 4 5 6 7 8 9 10 11 12 13 14 15 16 17 18 19 20 21 22 23 24 25 26 27 28 29 30 31 32 33 34 35 36 37 38 39 40 41 42 43 44 45 46 47 48 49 50
000
ASUS43 KLMK 170902
RWRKY
KENTUCKY REGIONAL WEATHER ROUNDUP
NATIONAL WEATHER SERVICE LOUISVILLE KY
400 AM EST WED JAN 17 2018

NOTE "FAIR" INDICATES FEW OR NO CLOUDS BELOW 12,000 FEET
WITH NO SIGNIFICANT WEATHER AND/OR OBSTRUCTIONS TO VISIBILITY.

KYZ001>023-026-027-061>063-070>075-171000-
WESTERN AND SOUTH CENTRAL KENTUCKY

CITY           SKY/WX    TMP DP  RH WIND       PRES   REMARKS
PADUCAH        CLOUDY    10   2  69 N10       30.67S WCI  -4
HENDERSON      FLURRIES  10   6  84 NW7       30.66S WCI  -1
OWENSBORO      FLURRIES  10   6  84 NW9       30.65S WCI  -3
HOPKINSVILLE   FLURRIES   4   0  84 NW6       30.63S WCI  -7
BOWLING GREEN  CLOUDY     8   2  76 N5        30.62S WCI   0
GLASGOW        NOT AVBL
$$

KYZ024-025-028>034-038-045-046-053-171000-
NORTH CENTRAL KENTUCKY

CITY           SKY/WX    TMP DP  RH WIND       PRES   REMARKS
LOUISVILLE/SDF LGT SNOW   9   4  80 W6        30.60F WCI  -1
LOUISVILLE/LOU FLURRIES   9   4  80 CALM      30.61S
FORT KNOX      FLURRIES   6   1  80 NW6       30.57S WCI  -4
$$

KYZ035>037-039>044-047>052-055>060-089>105-171000-
NORTHEAST KENTUCKY

CITY           SKY/WX    TMP DP  RH WIND       PRES   REMARKS
LEXINGTON      CLOUDY     6   0  76 NW6       30.54R WCI  -4
COVINGTON      LGT SNOW   7   4  87 SW3       30.53S FOG
FRANKFORT      CLOUDY     6   0  76 NW6       30.55F WCI  -4
$$

KYZ054-064>069-076>088-106>120-171000-
SOUTHEAST KENTUCKY

CITY           SKY/WX    TMP DP  RH WIND       PRES   REMARKS
JACKSON        LGT SNOW   5   1  83 CALM      30.47F FOG
LONDON         LGT SNOW   2  -2  83 CALM      30.50S
SOMERSET       NOT AVBL
MIDDLESBORO    FLURRIES   8   2  77 NW8       30.48F WCI  -5
MONTICELLO     FLURRIES   0  -3  87 NE7       30.56S WCI -13
$$





USA.gov is the U.S. government's official web portal to all federal, state and local government web resources and services.